Weather History for Gulfport, MS

Change the Weather History Date:

Wednesday, August 20, 2014

  Actual Average Record
Temperature  
Mean Temperature 84 °F -  
Max Temperature 91 °F 91 °F 98 °F (1972)
Min Temperature 77 °F 73 °F 65 °F (1953)
Cooling Degree Days 19    
Growing Degree Days 34 (Base 50)    
Moisture  
Dew Point 75 °F    
Average Humidity 75    
Maximum Humidity 94    
Minimum Humidity 54    
Precipitation  
Precipitation 0.00 in - - ()
Sea Level Pressure  
Sea Level Pressure 30.04 in    
Wind  
Wind Speed 3 mph (SSW)    
Max Wind Speed 10 mph    
Max Gust Speed -    
Visibility 10 miles    
Events      
Averages and records for this station are not official NWS values.
T = Trace of Precipitation, MM = Missing Value Source: NWS Daily Summary

Daily Weather History Graph

Daily Weather History Graph

Search for Another Location

Airport:

Trip Planner

Search our weather history database for the weather conditions in past years. The results will help you decide how hot, cold, wet, or windy it might be!

Date:

Astronomy

Aug. 20, 2014 Rise Set
Actual Time 6:26 AM CDT 7:32 PM CDT
Civil Twilight 6:01 AM CDT 7:57 PM CDT
Nautical Twilight 5:31 AM CDT 8:27 PM CDT
Astronomical Twilight 5:00 AM CDT 8:57 PM CDT
Moon 2:13 AM CDT (8/20) 4:10 PM CDT (8/20)
Length of Visible Light 13h 56m
Length of Day
13h 06m
Waning Crescent, 20% of the Moon is Illuminated
Aug 20
Waning Crescent
Aug 25
New
Sep 2
First Quarter
Sep 8
Full
Sep 15
Last Quarter

Hourly Weather History & Observations

Time (CDT) Temp. Heat Index Dew Point Humidity Pressure Visibility Wind Dir Wind Speed Gust Speed Precip Events Conditions
12:53 AM 80.1 °F 85.1 °F 75.0 °F 85% 29.96 in 10.0 mi Calm Calm - N/A   Clear
1:53 AM 78.1 °F - 75.0 °F 90% 29.96 in 10.0 mi NNW 4.6 mph - N/A   Clear
2:53 AM 79.0 °F - 75.9 °F 90% 29.96 in 10.0 mi Calm Calm - N/A   Clear
3:53 AM 79.0 °F - 75.9 °F 90% 29.98 in 10.0 mi Calm Calm - N/A   Mostly Cloudy
4:35 AM 79.0 °F - 75.9 °F 90% 29.99 in 10.0 mi Calm Calm - N/A   Mostly Cloudy
4:42 AM 79.0 °F - 75.9 °F 90% 29.99 in 10.0 mi Calm Calm - N/A   Scattered Clouds
4:53 AM 79.0 °F - 75.9 °F 90% 29.99 in 10.0 mi Calm Calm - N/A   Partly Cloudy
5:53 AM 77.0 °F - 75.0 °F 94% 30.01 in 9.0 mi Calm Calm - N/A   Clear
6:53 AM 77.0 °F - 75.0 °F 94% 30.03 in 7.0 mi Calm Calm - N/A   Clear
7:53 AM 81.0 °F 87.3 °F 75.9 °F 85% 30.06 in 9.0 mi Calm Calm - N/A   Partly Cloudy
8:53 AM 84.9 °F 94.1 °F 75.9 °F 74% 30.07 in 10.0 mi Variable 3.5 mph - N/A   Partly Cloudy
9:53 AM 87.1 °F 95.4 °F 73.9 °F 65% 30.09 in 10.0 mi WNW 3.5 mph - N/A   Partly Cloudy
10:53 AM 89.1 °F 98.0 °F 73.9 °F 61% 30.09 in 10.0 mi Variable 4.6 mph - N/A   Scattered Clouds
11:53 AM 89.1 °F 98.0 °F 73.9 °F 61% 30.09 in 10.0 mi Variable 3.5 mph - N/A   Scattered Clouds
12:53 PM 91.9 °F 100.7 °F 73.0 °F 54% 30.08 in 10.0 mi South 6.9 mph - N/A   Scattered Clouds
1:53 PM 91.0 °F 99.3 °F 73.0 °F 55% 30.06 in 10.0 mi South 8.1 mph - N/A   Scattered Clouds
2:53 PM 91.9 °F 103.2 °F 75.0 °F 58% 30.05 in 10.0 mi SSE 10.4 mph - N/A   Scattered Clouds
3:53 PM 91.0 °F 101.6 °F 75.0 °F 59% 30.04 in 10.0 mi SSE 9.2 mph - N/A   Partly Cloudy
4:53 PM 89.1 °F 98.0 °F 73.9 °F 61% 30.04 in 10.0 mi SSW 8.1 mph - N/A   Clear
5:53 PM 89.1 °F 99.1 °F 75.0 °F 63% 30.04 in 10.0 mi South 8.1 mph - N/A   Clear
6:53 PM 87.1 °F 97.3 °F 75.9 °F 69% 30.04 in 10.0 mi SSW 6.9 mph - N/A   Clear
7:53 PM 86.0 °F 96.0 °F 75.9 °F 72% 30.05 in 10.0 mi SSW 6.9 mph - N/A   Clear
8:53 PM 86.0 °F 95.1 °F 75.0 °F 70% 30.06 in 10.0 mi SW 8.1 mph - N/A   Partly Cloudy
9:53 PM 84.9 °F 94.1 °F 75.9 °F 74% 30.09 in 10.0 mi SSW 3.5 mph - N/A   Clear
10:53 PM 82.9 °F 90.8 °F 75.9 °F 79% 30.09 in 10.0 mi Calm Calm - N/A   Clear
11:53 PM 81.0 °F 87.9 °F 77.0 °F 88% 30.08 in 10.0 mi Calm Calm - N/A   Clear